RYR784B GMFO-LFBO

Flight info

Callsign RYR784B
Flight time 1h 29m
Altitude 38000
Route DIGEX DCT AMR N860 VLC L34 CASIM N608 GIROM DCT ASPET
Aircraft B38M/M-SADE3FGILRWY/SB1

Departure

Time 2026-04-25 21:09
Airport Oujda Angads Airport (GMFO)

Arrival

Time 2026-04-25 22:39
Airport Toulouse-Blagnac Airport (LFBO)
Time Latitude Longitude Altitude Speed Heading
2026-04-25 20:39 34.78576 -1.93942 1528 ft 0 kts 352°
2026-04-25 21:01 34.78573 -1.93941 1528 ft 3 kts 352°
2026-04-25 21:01 34.78547 -1.93939 1528 ft 4 kts
2026-04-25 21:01 34.78520 -1.93942 1527 ft 4 kts 14°
2026-04-25 21:01 34.78496 -1.93954 1520 ft 4 kts 39°
2026-04-25 21:02 34.78485 -1.93970 1523 ft 0 kts 65°
2026-04-25 21:04 34.78487 -1.93966 1523 ft 2 kts 65°
2026-04-25 21:04 34.78500 -1.93934 1523 ft 6 kts 63°
2026-04-25 21:04 34.78523 -1.93884 1521 ft 8 kts 57°
2026-04-25 21:05 34.78541 -1.93819 1525 ft 8 kts 102°
2026-04-25 21:05 34.78497 -1.93755 1522 ft 13 kts 132°
2026-04-25 21:05 34.78426 -1.93653 1526 ft 18 kts 116°
2026-04-25 21:05 34.78467 -1.93552 1528 ft 14 kts 37°
2026-04-25 21:06 34.78544 -1.93474 1526 ft 15 kts 41°
2026-04-25 21:06 34.78627 -1.93386 1528 ft 17 kts 42°
2026-04-25 21:06 34.78685 -1.93322 1527 ft 18 kts 41°
2026-04-25 21:06 34.78748 -1.93256 1525 ft 18 kts 40°
2026-04-25 21:07 34.78884 -1.93113 1523 ft 20 kts 41°
2026-04-25 21:07 34.78993 -1.92998 1525 ft 21 kts 40°
2026-04-25 21:07 34.79098 -1.92887 1525 ft 17 kts 41°
2026-04-25 21:07 34.79193 -1.92792 1521 ft 18 kts 28°
2026-04-25 21:08 34.79276 -1.92828 1523 ft 13 kts 311°
2026-04-25 21:08 34.79286 -1.92843 1525 ft 0 kts 311°
2026-04-25 21:08 34.79390 -1.92986 1525 ft 59 kts 311°
2026-04-25 21:08 34.79822 -1.93584 1526 ft 127 kts 311°
2026-04-25 21:09 34.81371 -1.95716 1988 ft 199 kts 312°
2026-04-25 21:09 34.82312 -1.97024 2725 ft 208 kts 313°
2026-04-25 21:09 34.83279 -1.98268 3745 ft 197 kts 314°
2026-04-25 21:10 34.84246 -1.99501 4505 ft 209 kts 314°
2026-04-25 21:10 34.85310 -2.00866 4942 ft 236 kts 315°
2026-04-25 21:10 34.86485 -2.02374 5522 ft 254 kts 310°
2026-04-25 21:10 34.87653 -2.04024 6353 ft 263 kts 311°
2026-04-25 21:11 34.88906 -2.05743 6994 ft 279 kts 311°
2026-04-25 21:11 34.90205 -2.07495 7957 ft 279 kts 311°
2026-04-25 21:11 34.91523 -2.09258 8868 ft 283 kts 311°
2026-04-25 21:11 34.92863 -2.11037 9794 ft 286 kts 311°
2026-04-25 21:12 34.94227 -2.12842 10539 ft 296 kts 311°
2026-04-25 21:12 34.95665 -2.14742 10975 ft 314 kts 311°
2026-04-25 21:12 34.97179 -2.16740 11540 ft 326 kts 312°
2026-04-25 21:12 34.98199 -2.18087 12101 ft 327 kts 311°
2026-04-25 21:13 35.00276 -2.20832 13202 ft 332 kts 311°
2026-04-25 21:13 35.01853 -2.22916 14017 ft 336 kts 311°
2026-04-25 21:13 35.03446 -2.25022 14738 ft 340 kts 311°
2026-04-25 21:13 35.05057 -2.27154 15490 ft 343 kts 312°
2026-04-25 21:14 35.06684 -2.29308 16193 ft 348 kts 312°
2026-04-25 21:14 35.08335 -2.31496 16883 ft 352 kts 312°
2026-04-25 21:14 35.10005 -2.33708 17576 ft 356 kts 312°
2026-04-25 21:14 35.11829 -2.35765 18242 ft 360 kts 327°
2026-04-25 21:15 35.14108 -2.37020 18844 ft 363 kts 346°
2026-04-25 21:15 35.16610 -2.37483 19441 ft 365 kts 356°
2026-04-25 21:15 35.19152 -2.37435 20040 ft 367 kts
2026-04-25 21:15 35.21689 -2.36988 20657 ft 369 kts 12°
2026-04-25 21:16 35.24194 -2.36265 21246 ft 372 kts
2026-04-25 21:16 35.26771 -2.36327 21852 ft 373 kts 355°
2026-04-25 21:16 35.29378 -2.36395 22361 ft 377 kts
2026-04-25 21:16 35.32003 -2.36323 22936 ft 379 kts
2026-04-25 21:17 35.34652 -2.36199 23475 ft 382 kts
2026-04-25 21:17 35.37313 -2.36049 23965 ft 384 kts
2026-04-25 21:17 35.39991 -2.35882 24407 ft 387 kts
2026-04-25 21:17 35.42690 -2.35704 24848 ft 390 kts
2026-04-25 21:18 35.45408 -2.35521 25265 ft 392 kts
2026-04-25 21:18 35.48142 -2.35334 25698 ft 395 kts
2026-04-25 21:18 35.50895 -2.35146 26099 ft 398 kts
2026-04-25 21:18 35.53671 -2.34956 26516 ft 401 kts
2026-04-25 21:19 35.56463 -2.34765 26907 ft 404 kts
2026-04-25 21:19 35.59275 -2.34573 27308 ft 406 kts
2026-04-25 21:19 35.62101 -2.34379 27690 ft 409 kts
2026-04-25 21:19 35.64952 -2.34184 28074 ft 411 kts
2026-04-25 21:20 35.67783 -2.33989 28453 ft 414 kts
2026-04-25 21:20 35.69726 -2.33856 28712 ft 415 kts
2026-04-25 21:20 35.73608 -2.33589 29195 ft 419 kts
2026-04-25 21:20 35.76525 -2.33389 29568 ft 421 kts
2026-04-25 21:21 35.79463 -2.33187 29912 ft 424 kts
2026-04-25 21:21 35.82375 -2.32986 30240 ft 426 kts
2026-04-25 21:21 35.85347 -2.32781 30534 ft 429 kts
2026-04-25 21:21 35.88332 -2.32575 30828 ft 431 kts
2026-04-25 21:22 35.91333 -2.32368 31113 ft 433 kts
2026-04-25 21:22 35.94350 -2.32160 31390 ft 436 kts
2026-04-25 21:22 35.97387 -2.31950 31674 ft 438 kts
2026-04-25 21:22 36.00439 -2.31739 31936 ft 441 kts
2026-04-25 21:23 36.03506 -2.31527 32209 ft 443 kts
2026-04-25 21:23 36.06589 -2.31313 32460 ft 445 kts
2026-04-25 21:23 36.09690 -2.31098 32722 ft 448 kts
2026-04-25 21:23 36.12811 -2.30882 32992 ft 450 kts
2026-04-25 21:24 36.15937 -2.30665 33299 ft 451 kts
2026-04-25 21:24 36.19069 -2.30447 33654 ft 451 kts
2026-04-25 21:24 36.22201 -2.30229 34006 ft 450 kts
2026-04-25 21:24 36.25327 -2.30012 34310 ft 451 kts
2026-04-25 21:25 36.28457 -2.29794 34620 ft 450 kts
2026-04-25 21:25 36.31582 -2.29576 34929 ft 449 kts
2026-04-25 21:25 36.34701 -2.29358 35227 ft 449 kts
2026-04-25 21:25 36.37815 -2.29141 35529 ft 448 kts
2026-04-25 21:26 36.40922 -2.28924 35817 ft 447 kts
2026-04-25 21:26 36.44030 -2.28706 36105 ft 447 kts
2026-04-25 21:26 36.47127 -2.28489 36376 ft 446 kts
2026-04-25 21:26 36.50225 -2.28272 36648 ft 445 kts
2026-04-25 21:27 36.53316 -2.28055 36908 ft 445 kts
2026-04-25 21:27 36.56405 -2.27838 37162 ft 444 kts
2026-04-25 21:27 36.59490 -2.27622 37406 ft 444 kts
2026-04-25 21:27 36.62567 -2.27405 37644 ft 443 kts
2026-04-25 21:28 36.65647 -2.27188 37876 ft 443 kts
2026-04-25 21:28 36.68722 -2.26972 38065 ft 443 kts
2026-04-25 21:28 36.74882 -2.26537 38099 ft 443 kts
2026-04-25 21:29 36.81030 -2.26086 38102 ft 443 kts
2026-04-25 21:29 36.84013 -2.25181 38081 ft 443 kts 22°
2026-04-25 21:29 36.86776 -2.23476 38106 ft 445 kts 25°
2026-04-25 21:30 36.92303 -2.19956 38109 ft 446 kts 26°
2026-04-25 21:30 36.96870 -2.16955 38116 ft 446 kts 27°
2026-04-25 21:31 37.03274 -2.12701 38124 ft 446 kts 27°
2026-04-25 21:31 37.08711 -2.09081 38139 ft 445 kts 27°
2026-04-25 21:32 37.14172 -2.05437 38135 ft 444 kts 27°
2026-04-25 21:32 37.19626 -2.01793 38146 ft 444 kts 27°
2026-04-25 21:33 37.25089 -1.98182 38142 ft 443 kts 26°
2026-04-25 21:33 37.30588 -1.94681 38142 ft 443 kts 26°
2026-04-25 21:34 37.36080 -1.91160 38149 ft 443 kts 26°
2026-04-25 21:34 37.41564 -1.87635 38144 ft 443 kts 27°
2026-04-25 21:35 37.47045 -1.84107 38152 ft 442 kts 27°
2026-04-25 21:35 37.52523 -1.80574 38146 ft 442 kts 27°
2026-04-25 21:36 37.57995 -1.77040 38147 ft 442 kts 27°
2026-04-25 21:36 37.63468 -1.73499 38147 ft 442 kts 27°
2026-04-25 21:37 37.68055 -1.70527 38155 ft 442 kts 27°
2026-04-25 21:37 37.74409 -1.66403 38149 ft 442 kts 27°
2026-04-25 21:38 37.79885 -1.62843 38152 ft 442 kts 27°
2026-04-25 21:38 37.85355 -1.59280 38150 ft 443 kts 27°
2026-04-25 21:39 37.90825 -1.55702 38150 ft 443 kts 28°
2026-04-25 21:39 37.96280 -1.52068 38154 ft 443 kts 28°
2026-04-25 21:40 38.01734 -1.48438 38151 ft 443 kts 28°
2026-04-25 21:40 38.07184 -1.44804 38151 ft 443 kts 28°
2026-04-25 21:41 38.12629 -1.41168 38149 ft 442 kts 28°
2026-04-25 21:41 38.18077 -1.37524 38142 ft 442 kts 28°
2026-04-25 21:42 38.23517 -1.33878 38141 ft 442 kts 28°
2026-04-25 21:42 38.28924 -1.30250 38143 ft 442 kts 28°
2026-04-25 21:43 38.34357 -1.26597 38142 ft 441 kts 28°
2026-04-25 21:43 38.39783 -1.22942 38142 ft 441 kts 28°
2026-04-25 21:44 38.45205 -1.19284 38137 ft 441 kts 28°
2026-04-25 21:45 38.53337 -1.13787 38140 ft 441 kts 28°
2026-04-25 21:45 38.58751 -1.10118 38138 ft 441 kts 28°
2026-04-25 21:46 38.64166 -1.06443 38141 ft 440 kts 28°
2026-04-25 21:46 38.69573 -1.02768 38140 ft 440 kts 28°
2026-04-25 21:47 38.74980 -0.99084 38137 ft 440 kts 28°
2026-04-25 21:47 38.80382 -0.95397 38138 ft 440 kts 28°
2026-04-25 21:48 38.85786 -0.91702 38136 ft 440 kts 28°
2026-04-25 21:48 38.91190 -0.88002 38137 ft 440 kts 28°
2026-04-25 21:49 38.96593 -0.84295 38141 ft 440 kts 28°
2026-04-25 21:49 39.01998 -0.80580 38141 ft 440 kts 28°
2026-04-25 21:50 39.07394 -0.76866 38135 ft 440 kts 28°
2026-04-25 21:50 39.12786 -0.73147 38134 ft 440 kts 28°
2026-04-25 21:51 39.18175 -0.69424 38133 ft 439 kts 28°
2026-04-25 21:51 39.22653 -0.66325 38137 ft 439 kts 28°
2026-04-25 21:52 39.28045 -0.62588 38142 ft 440 kts 28°
2026-04-25 21:52 39.33435 -0.58846 38144 ft 440 kts 28°
2026-04-25 21:53 39.38833 -0.55091 38155 ft 441 kts 28°
2026-04-25 21:53 39.44239 -0.51324 38155 ft 441 kts 28°
2026-04-25 21:54 39.49564 -0.47390 38155 ft 441 kts 34°
2026-04-25 21:54 39.54703 -0.43022 38156 ft 442 kts 32°
2026-04-25 21:55 39.59879 -0.38717 38160 ft 442 kts 32°
2026-04-25 21:55 39.65054 -0.34419 38157 ft 442 kts 32°
2026-04-25 21:56 39.70234 -0.30111 38147 ft 442 kts 32°
2026-04-25 21:56 39.75409 -0.25799 38142 ft 442 kts 32°
2026-04-25 21:57 39.80584 -0.21478 38133 ft 442 kts 32°
2026-04-25 21:57 39.85752 -0.17157 38127 ft 441 kts 33°
2026-04-25 21:58 39.90908 -0.12837 38124 ft 441 kts 33°
2026-04-25 21:58 39.96061 -0.08512 38126 ft 441 kts 33°
2026-04-25 21:59 40.01209 -0.04184 38142 ft 440 kts 33°
2026-04-25 21:59 40.06353 0.00150 38147 ft 440 kts 33°
2026-04-25 22:00 40.14055 0.06652 38151 ft 439 kts 33°
2026-04-25 22:00 40.19142 0.10955 38152 ft 439 kts 33°
2026-04-25 22:01 40.24481 0.14727 38156 ft 437 kts 16°
2026-04-25 22:01 40.29386 0.16605 38149 ft 439 kts 17°
2026-04-25 22:02 40.36210 0.19219 38143 ft 439 kts 16°
2026-04-25 22:02 40.42090 0.21433 38146 ft 440 kts 16°
2026-04-25 22:03 40.47970 0.23647 38142 ft 440 kts 16°
2026-04-25 22:03 40.53855 0.25866 38134 ft 440 kts 16°
2026-04-25 22:04 40.59734 0.28089 38130 ft 440 kts 16°
2026-04-25 22:04 40.65629 0.30321 38137 ft 441 kts 16°
2026-04-25 22:05 40.71540 0.32564 38132 ft 442 kts 16°
2026-04-25 22:05 40.77445 0.34809 38134 ft 442 kts 16°
2026-04-25 22:06 40.83349 0.37057 38125 ft 442 kts 15°
2026-04-25 22:06 40.89264 0.39315 38126 ft 443 kts 15°
2026-04-25 22:07 40.94222 0.41210 38121 ft 443 kts 15°
2026-04-25 22:07 41.01098 0.43844 38127 ft 443 kts 15°
2026-04-25 22:08 41.07017 0.46117 38129 ft 443 kts 15°
2026-04-25 22:08 41.12933 0.48392 38127 ft 443 kts 15°
2026-04-25 22:09 41.18846 0.50669 38123 ft 443 kts 15°
2026-04-25 22:09 41.24764 0.52952 38130 ft 443 kts 15°
2026-04-25 22:10 41.30678 0.55238 38122 ft 443 kts 15°
2026-04-25 22:10 41.36598 0.57531 38126 ft 443 kts 15°
2026-04-25 22:11 41.42517 0.59829 38131 ft 444 kts 15°
2026-04-25 22:11 41.48447 0.62135 38123 ft 444 kts 15°
2026-04-25 22:12 41.54370 0.64438 38129 ft 443 kts 14°
2026-04-25 22:12 41.59360 0.65885 38133 ft 442 kts 11°
2026-04-25 22:13 41.66382 0.67925 38128 ft 442 kts 11°
2026-04-25 22:13 41.72409 0.69613 38130 ft 442 kts 11°
2026-04-25 22:14 41.78395 0.71301 38135 ft 443 kts 11°
2026-04-25 22:14 41.84430 0.73008 38134 ft 443 kts 11°
2026-04-25 22:15 41.90466 0.74717 38138 ft 444 kts 11°
2026-04-25 22:16 41.99539 0.77291 38143 ft 444 kts 11°
2026-04-25 22:16 42.05586 0.79012 38151 ft 444 kts 11°
2026-04-25 22:17 42.11636 0.80737 38158 ft 445 kts 11°
2026-04-25 22:17 42.17694 0.82467 38169 ft 445 kts 11°
2026-04-25 22:17 42.20708 0.83329 37672 ft 443 kts 11°
2026-04-25 22:18 42.23729 0.84194 36705 ft 443 kts 11°
2026-04-25 22:18 42.26736 0.85056 35817 ft 441 kts 11°
2026-04-25 22:18 42.29728 0.85914 34977 ft 437 kts 11°
2026-04-25 22:18 42.32691 0.86765 34162 ft 434 kts 11°
2026-04-25 22:19 42.35635 0.87612 33264 ft 430 kts 11°
2026-04-25 22:19 42.38554 0.88451 32399 ft 427 kts 11°
2026-04-25 22:19 42.41443 0.89283 31566 ft 423 kts 11°
2026-04-25 22:19 42.44311 0.90110 30774 ft 420 kts 11°
2026-04-25 22:20 42.47157 0.90930 29948 ft 416 kts 11°
2026-04-25 22:20 42.49975 0.91743 29082 ft 412 kts 11°
2026-04-25 22:20 42.52762 0.92548 28237 ft 408 kts 11°
2026-04-25 22:20 42.55530 0.93348 27431 ft 404 kts 11°
2026-04-25 22:21 42.58265 0.94139 26647 ft 401 kts 11°
2026-04-25 22:21 42.60982 0.94926 25898 ft 397 kts 11°
2026-04-25 22:21 42.63671 0.95705 25166 ft 393 kts 11°
2026-04-25 22:21 42.66332 0.96477 24462 ft 389 kts 11°
2026-04-25 22:22 42.68966 0.97241 23785 ft 385 kts 11°
2026-04-25 22:22 42.71575 0.97999 22990 ft 382 kts 11°
2026-04-25 22:22 42.74165 0.98752 22228 ft 379 kts 11°
2026-04-25 22:22 42.76729 0.99488 21478 ft 375 kts
2026-04-25 22:23 42.79313 0.99618 20749 ft 370 kts 354°
2026-04-25 22:23 42.81861 0.99379 20089 ft 366 kts 356°
2026-04-25 22:23 42.84395 0.99186 19419 ft 363 kts 356°
2026-04-25 22:23 42.86908 0.98991 18768 ft 360 kts 356°
2026-04-25 22:24 42.89397 0.98799 18071 ft 357 kts 356°
2026-04-25 22:24 42.91862 0.98607 17354 ft 353 kts 356°
2026-04-25 22:24 42.94307 0.98416 16654 ft 350 kts 356°
2026-04-25 22:24 42.96721 0.98228 15982 ft 346 kts 356°
2026-04-25 22:25 42.99115 0.98181 15324 ft 343 kts
2026-04-25 22:25 43.01356 0.99190 14684 ft 340 kts 29°
2026-04-25 22:25 43.03341 1.00913 14080 ft 336 kts 32°
2026-04-25 22:25 43.05305 1.02601 13457 ft 331 kts 32°
2026-04-25 22:26 43.07220 1.04258 13026 ft 320 kts 32°
2026-04-25 22:26 43.09067 1.05864 12711 ft 308 kts 32°
2026-04-25 22:26 43.10837 1.07405 12403 ft 296 kts 32°
2026-04-25 22:26 43.12543 1.08893 12103 ft 285 kts 32°
2026-04-25 22:27 43.14189 1.10330 11805 ft 277 kts 32°
2026-04-25 22:27 43.15823 1.11757 11516 ft 283 kts 32°
2026-04-25 22:27 43.17500 1.13223 11211 ft 289 kts 32°
2026-04-25 22:27 43.19203 1.14714 10904 ft 291 kts 32°
2026-04-25 22:28 43.20908 1.16206 10593 ft 291 kts 32°
2026-04-25 22:28 43.22612 1.17699 10349 ft 288 kts 32°
2026-04-25 22:28 43.24286 1.19165 10098 ft 284 kts 32°
2026-04-25 22:28 43.25944 1.20620 9764 ft 283 kts 32°
2026-04-25 22:29 43.27574 1.22051 9450 ft 281 kts 32°
2026-04-25 22:29 43.29270 1.23345 9119 ft 278 kts 17°
2026-04-25 22:29 43.31156 1.23825 8822 ft 275 kts
2026-04-25 22:30 43.34895 1.24578 8283 ft 269 kts
2026-04-25 22:30 43.36639 1.25426 7991 ft 268 kts 33°
2026-04-25 22:30 43.37911 1.27261 7710 ft 266 kts 60°
2026-04-25 22:30 43.38380 1.28852 7544 ft 268 kts 76°
2026-04-25 22:31 43.38670 1.32218 7207 ft 267 kts 84°
2026-04-25 22:31 43.38827 1.34750 6942 ft 264 kts 84°
2026-04-25 22:31 43.38973 1.37259 6680 ft 262 kts 85°
2026-04-25 22:31 43.39110 1.39751 6405 ft 260 kts 85°
2026-04-25 22:32 43.39240 1.42204 6137 ft 258 kts 85°
2026-04-25 22:32 43.39368 1.44649 5879 ft 255 kts 84°
2026-04-25 22:32 43.39867 1.46949 5540 ft 251 kts 55°
2026-04-25 22:32 43.41111 1.48529 5191 ft 241 kts 27°
2026-04-25 22:33 43.42558 1.49602 4914 ft 231 kts 27°
2026-04-25 22:33 43.43942 1.50646 4670 ft 224 kts 27°
2026-04-25 22:33 43.45310 1.51654 4429 ft 221 kts 23°
2026-04-25 22:33 43.46759 1.51984 4191 ft 205 kts 350°
2026-04-25 22:34 43.48008 1.51285 3904 ft 188 kts 326°
2026-04-25 22:34 43.49053 1.50311 3637 ft 176 kts 324°
2026-04-25 22:34 43.50049 1.49361 3425 ft 173 kts 324°
2026-04-25 22:34 43.51032 1.48408 3184 ft 172 kts 323°
2026-04-25 22:35 43.52000 1.47445 3006 ft 171 kts 323°
2026-04-25 22:35 43.52970 1.46479 2799 ft 172 kts 322°
2026-04-25 22:35 43.53927 1.45495 2549 ft 171 kts 321°
2026-04-25 22:35 43.54875 1.44510 2312 ft 171 kts 321°
2026-04-25 22:36 43.55814 1.43533 2111 ft 163 kts 321°
2026-04-25 22:36 43.56680 1.42634 1875 ft 152 kts 321°
2026-04-25 22:36 43.57232 1.42060 1737 ft 149 kts 321°
2026-04-25 22:36 43.58051 1.41208 1522 ft 144 kts 321°
2026-04-25 22:37 43.58829 1.40397 1335 ft 137 kts 322°
2026-04-25 22:37 43.59573 1.39623 1118 ft 132 kts 321°
2026-04-25 22:37 43.60307 1.38861 931 ft 132 kts 322°
2026-04-25 22:37 43.61273 1.37855 696 ft 132 kts 322°
2026-04-25 22:38 43.61767 1.37337 580 ft 131 kts 322°
2026-04-25 22:38 43.62450 1.36623 493 ft 108 kts 322°
2026-04-25 22:38 43.62869 1.36191 491 ft 53 kts 323°
2026-04-25 22:38 43.63165 1.35882 487 ft 53 kts 322°
2026-04-25 22:39 43.63394 1.35645 496 ft 28 kts 323°
2026-04-25 22:39 43.63530 1.35517 490 ft 23 kts 334°
2026-04-25 22:39 43.63634 1.35601 488 ft 19 kts 52°
2026-04-25 22:39 43.63717 1.35753 493 ft 19 kts 52°
2026-04-25 22:40 43.63796 1.35896 494 ft 18 kts 53°
2026-04-25 22:40 43.63781 1.36035 496 ft 16 kts 144°
2026-04-25 22:40 43.63684 1.36130 491 ft 18 kts 142°
2026-04-25 22:40 43.63587 1.36232 493 ft 18 kts 143°
2026-04-25 22:41 43.63480 1.36342 494 ft 20 kts 143°
2026-04-25 22:41 43.63361 1.36466 490 ft 22 kts 143°
2026-04-25 22:41 43.63265 1.36566 496 ft 14 kts 137°
2026-04-25 22:41 43.63268 1.36665 489 ft 10 kts 60°
2026-04-25 22:42 43.63282 1.36767 496 ft 12 kts 101°
2026-04-25 22:42 43.63262 1.36834 488 ft 6 kts 115°
2026-04-25 22:42 43.63243 1.36891 489 ft 3 kts 115°
2026-04-25 22:42 43.63234 1.36916 491 ft 1 kts 114°
2026-04-25 22:43 43.63234 1.36917 491 ft 0 kts 114°